Fredericksburg, VA

3:34 PM EST on February 24, 2017 (GMT -0500)
Stafford

Weather History for KRMN - November, 2012

Change the Weather History Date:

Friday, November 9, 2012

  Actual Average (KNYG) Record (KNYG)
Temperature  
Mean Temperature 45 °F -  
Max Temperature 59 °F 55 °F 72 °F (2006)
Min Temperature 31 °F 38 °F 30 °F (2003)
Degree Days  
Heating Degree Days 20    
Moisture  
Dew Point 33 °F    
Average Humidity 67    
Maximum Humidity 96    
Minimum Humidity 40    
Precipitation  
Precipitation 0.00 in - - ()
Sea Level Pressure  
Sea Level Pressure 30.22 in    
Wind  
Wind Speed 6 mph (NW)    
Max Wind Speed 20 mph    
Max Gust Speed 26 mph    
Visibility 10 miles    
Events      
Averages and records for this station are not official NWS values.
T = Trace of Precipitation, MM = Missing Value Source: NWS Daily Summary

Daily Weather History Graph

Daily Weather History Graph

Search for Another Location

Airport or City:

Trip Planner

Search our weather history database for the weather conditions in past years. The results will help you decide how hot, cold, wet, or windy it might be!

Date:

Astronomy

Nov. 09, 2012 Rise Set
Actual Time 6:45 AM EST 5:01 PM EST
Civil Twilight 6:17 AM EST 5:29 PM EST
Nautical Twilight 5:45 AM EST 6:01 PM EST
Astronomical Twilight 5:14 AM EST 6:32 PM EST
Moon 1:45 AM EST (11/9) 2:10 PM EST (11/9)
Length of Visible Light 11h 12m
Length of Day
10h 16m
Waning Crescent, 23% of the Moon is Illuminated
Nov 9
Waning Crescent
Nov 13
New
Nov 20
First Quarter
Nov 28
Full
Dec 6
Last Quarter

Hourly Weather History & Observations

Time (EST) Temp. Windchill Dew Point Humidity Pressure Visibility Wind Dir Wind Speed Gust Speed Precip Events Conditions
12:15 AM 41.9 °F 36.9 °F 30.0 °F 63% 30.12 in 10.0 mi NW 8.1 mph - N/A   Clear
12:35 AM 41.7 °F 37.3 °F 30.2 °F 64% 30.12 in 10.0 mi WNW 6.9 mph - N/A   Clear
12:55 AM 42.8 °F 37.5 °F 30.2 °F 61% 30.12 in 10.0 mi NW 9.2 mph - N/A   Clear
1:15 AM 42.4 °F 35.7 °F 30.6 °F 63% 30.12 in 10.0 mi NW 12.7 mph - N/A   Clear
1:35 AM 42.8 °F 37.0 °F 30.7 °F 62% 30.12 in 10.0 mi NW 10.4 mph - N/A   Clear
1:55 AM 42.8 °F 38.6 °F 30.4 °F 62% 30.13 in 10.0 mi WNW 6.9 mph - N/A   Clear
2:15 AM 42.3 °F 37.9 °F 30.7 °F 64% 30.13 in 10.0 mi NW 6.9 mph - N/A   Clear
2:35 AM 40.8 °F 37.8 °F 30.7 °F 67% 30.14 in 10.0 mi NW 4.6 mph - N/A   Clear
2:55 AM 41.5 °F - 30.6 °F 65% 30.14 in 10.0 mi Calm Calm - N/A   Clear
3:15 AM 39.2 °F - 30.2 °F 70% 30.15 in 10.0 mi Calm Calm - N/A   Clear
3:35 AM 36.9 °F - 30.2 °F 77% 30.15 in 10.0 mi Calm Calm - N/A   Clear
3:55 AM 35.4 °F - 30.2 °F 81% 30.15 in 10.0 mi Calm Calm - N/A   Clear
4:15 AM 34.0 °F - 29.8 °F 85% 30.17 in 10.0 mi Calm Calm - N/A   Clear
4:35 AM 34.2 °F - 29.5 °F 83% 30.17 in 10.0 mi Calm Calm - N/A   Clear
4:55 AM 32.7 °F - 29.3 °F 87% 30.18 in 10.0 mi Calm Calm - N/A   Clear
5:15 AM 33.1 °F - 29.7 °F 87% 30.19 in 10.0 mi Calm Calm - N/A   Clear
5:35 AM 31.3 °F 25.6 °F 28.9 °F 91% 30.19 in 10.0 mi NNW 5.8 mph - N/A   Clear
5:55 AM 32.2 °F 26.7 °F 29.7 °F 90% 30.20 in 10.0 mi NNW 5.8 mph - N/A   Clear
6:15 AM 31.5 °F - 28.9 °F 90% 30.20 in 10.0 mi Calm Calm - N/A   Clear
6:35 AM 31.8 °F 26.2 °F 29.1 °F 90% 30.21 in 10.0 mi NW 5.8 mph - N/A   Clear
6:55 AM 32.5 °F 29.3 °F 29.5 °F 88% 30.22 in 10.0 mi North 3.5 mph - N/A   Clear
7:15 AM 31.6 °F 28.3 °F 28.6 °F 88% 30.22 in 10.0 mi NW 3.5 mph - N/A   Clear
7:35 AM 32.4 °F - 30.6 °F 93% 30.23 in 10.0 mi Calm Calm - N/A   Clear
7:55 AM 35.8 °F - 32.5 °F 88% 30.24 in 10.0 mi Calm Calm - N/A   Clear
8:15 AM 39.7 °F - 34.5 °F 82% 30.25 in 10.0 mi Calm Calm - N/A   Clear
8:35 AM 43.7 °F - 34.2 °F 69% 30.24 in 10.0 mi Calm Calm - N/A   Clear
8:55 AM 48.2 °F - 34.2 °F 58% 30.25 in 10.0 mi NNW 8.1 mph - N/A   Clear
9:15 AM 49.3 °F - 34.0 °F 56% 30.25 in 10.0 mi NNW 15.0 mph 20.7 mph N/A   Clear
9:35 AM 50.5 °F - 34.0 °F 53% 30.26 in 10.0 mi NNW 19.6 mph 26.5 mph N/A   Clear
9:55 AM 52.0 °F - 34.2 °F 51% 30.26 in 10.0 mi NW 19.6 mph 25.3 mph N/A   Clear
10:15 AM 52.7 °F - 34.2 °F 49% 30.26 in 10.0 mi NNW 13.8 mph 25.3 mph N/A   Clear
10:35 AM 54.1 °F - 34.3 °F 47% 30.27 in 10.0 mi NW 19.6 mph 25.3 mph N/A   Clear
10:55 AM 54.9 °F - 34.2 °F 46% 30.26 in 10.0 mi NW 16.1 mph 21.9 mph N/A   Clear
11:15 AM 55.0 °F - 32.9 °F 43% 30.26 in 10.0 mi NW 18.4 mph 26.5 mph N/A   Clear
11:35 AM 55.8 °F - 32.9 °F 42% 30.26 in 10.0 mi NNW 15.0 mph - N/A   Clear
11:55 AM 56.7 °F - 33.1 °F 41% 30.25 in 10.0 mi NW 13.8 mph 23.0 mph N/A   Clear
12:15 PM 57.0 °F - 33.1 °F 40% 30.24 in 10.0 mi NNW 11.5 mph 20.7 mph N/A   Clear
12:35 PM 57.2 °F - 33.1 °F 40% 30.23 in 10.0 mi NW 13.8 mph - N/A   Clear
12:55 PM 57.6 °F - 33.3 °F 40% 30.23 in 10.0 mi NW 15.0 mph 19.6 mph N/A   Clear
1:15 PM 58.3 °F - 34.0 °F 40% 30.23 in 10.0 mi NNW 13.8 mph - N/A   Clear
1:35 PM 58.1 °F - 34.5 °F 41% 30.23 in 10.0 mi WNW 9.2 mph - N/A   Clear
1:55 PM 58.8 °F - 35.8 °F 42% 30.22 in 10.0 mi NNW 6.9 mph - N/A   Clear
2:15 PM 58.6 °F - 35.2 °F 42% 30.22 in 10.0 mi NW 6.9 mph - N/A   Clear
2:35 PM 59.2 °F - 35.4 °F 41% 30.21 in 10.0 mi NW 5.8 mph - N/A   Clear
2:55 PM 59.0 °F - 35.4 °F 41% 30.21 in 10.0 mi Calm Calm - N/A   Clear
3:15 PM 59.2 °F - 35.1 °F 40% 30.20 in 10.0 mi WNW 4.6 mph - N/A   Clear
3:35 PM 59.0 °F - 34.9 °F 40% 30.20 in 10.0 mi Calm Calm - N/A   Clear
3:55 PM 59.0 °F - 35.1 °F 41% 30.21 in 10.0 mi WSW 3.5 mph - N/A   Clear
4:15 PM 58.5 °F - 35.1 °F 42% 30.21 in 10.0 mi West 3.5 mph - N/A   Clear
4:35 PM 58.1 °F - 34.5 °F 41% 30.21 in 10.0 mi Calm Calm - N/A   Clear
4:55 PM 57.0 °F - 34.5 °F 43% 30.21 in 10.0 mi Calm Calm - N/A   Clear
5:15 PM 52.5 °F - 37.6 °F 57% 30.21 in 10.0 mi Calm Calm - N/A   Clear
5:35 PM 50.2 °F - 37.6 °F 62% 30.22 in 10.0 mi Calm Calm - N/A   Clear
5:55 PM 49.1 °F - 37.8 °F 65% 30.23 in 10.0 mi Calm Calm - N/A   Clear
6:15 PM 46.9 °F - 37.9 °F 71% 30.23 in 10.0 mi Calm Calm - N/A   Clear
6:35 PM 44.4 °F - 36.9 °F 75% 30.24 in 10.0 mi Calm Calm - N/A   Clear
6:55 PM 43.7 °F - 37.2 °F 78% 30.24 in 10.0 mi Calm Calm - N/A   Clear
7:15 PM 42.3 °F - 36.1 °F 79% 30.25 in 10.0 mi Calm Calm - N/A   Clear
7:35 PM 42.4 °F - 36.5 °F 79% 30.25 in 10.0 mi Calm Calm - N/A   Clear
7:55 PM 41.9 °F - 36.7 °F 82% 30.25 in 10.0 mi Calm Calm - N/A   Clear
8:15 PM 41.0 °F - 35.8 °F 82% 30.26 in 10.0 mi Calm Calm - N/A   Clear
8:35 PM 39.0 °F - 35.6 °F 88% 30.26 in 10.0 mi Calm Calm - N/A   Clear
8:55 PM 39.4 °F - 36.0 °F 88% 30.27 in 10.0 mi Calm Calm - N/A   Clear
9:15 PM 38.5 °F - 35.2 °F 88% 30.27 in 10.0 mi Calm Calm - N/A   Clear
9:35 PM 37.9 °F - 35.6 °F 91% 30.27 in 10.0 mi Calm Calm - N/A   Clear
9:55 PM 37.4 °F - 35.1 °F 91% 30.27 in 10.0 mi Calm Calm - N/A   Clear
10:15 PM 37.2 °F - 35.1 °F 92% 30.27 in 10.0 mi Calm Calm - N/A   Clear
10:35 PM 36.5 °F - 34.9 °F 94% 30.27 in 10.0 mi Calm Calm - N/A   Clear
10:55 PM 35.6 °F - 34.3 °F 95% 30.27 in 10.0 mi Calm Calm - N/A   Clear
11:15 PM 36.5 °F - 35.4 °F 96% 30.27 in 10.0 mi Calm Calm - N/A   Clear
11:35 PM 34.7 °F - 33.6 °F 96% 30.27 in 10.0 mi Calm Calm - N/A   Clear